Content
SEND FEEDBACK

Daily
Averages
Monthly
Summary
Bosnia and Herzegovina

BRDA, BOSNIA AND HERZEGOVINA


Home > Europe > Bosnia and Herzegovina
Elevation: 6791 feet     Latitude: 43 43N     Longitude: 018 16E

WEATHER
 
SELECT A DAY
Number of Records: 178,014;   Date Range: 2/20/97 - 8/10/14
 
SHARE

PRINT THIS DATA

[ ← Previous Day ]
WEATHER ALMANAC - FEBRUARY 13, 2013
[ Next Day → ]
[ °C ]   °F
Weather ElementAverageHighLow
Temperature35.2 °F39.2 °F (12:00 pm)32 °F (5:30 pm)
Dewpoint34.5 °F37.4 °F (1:00 am)32 °F (4:00 pm)
Humidity97.3 %100 % (1:00 am)93 % (2:00 am)
Barometer29.78 in29.92 in (11:00 pm)29.74 in (1:00 am)
Wind Speed4 mph12.7 mph (4:00 pm)
Weather ElementAverage
Visibility2.5 mi
Wind DirectionSSE (141 °)

Weather ElementTotal
Precipitation---
Heating Degree Days29.4 (Base 65)
Averaged from 39 records on February 13, 2013
WEATHER CONDITIONS BREAKOUT
WIND DIRECTION BREAKOUT
WEATHER BY HOUR - FEBRUARY 13, 2013
[ °C ]   °F
Local TimeTemperatureDewpointHumidityBarometerVisibilityWind DirectionWind SpeedGust SpeedPrecipitationEventsConditions
1:00 AM37.4 °F37.4 °F100 %29.74 in3.7 miVariable1.2 mphRainLight Rain
2:00 AM37.4 °F35.6 °F93 %29.74 in4.3 miCalmMostly Cloudy
3:00 AM35.6 °F35.6 °F100 %29.74 in4.3 miCalmMostly Cloudy
4:00 AM35.6 °F35.6 °F100 %29.74 in3.7 miVariable1.2 mphMostly Cloudy
5:00 AM35.6 °F35.6 °F100 %29.74 in3.7 miCalmMostly Cloudy
5:30 AM35.6 °F35.6 °F100 %29.74 in3.7 miVariable1.2 mphMostly Cloudy
6:00 AM35.6 °F35.6 °F100 %29.74 in3.1 miCalmMostly Cloudy
6:30 AM35.6 °F35.6 °F100 %29.74 in3.1 miVariable1.2 mphMostly Cloudy
7:00 AM35.6 °F33.8 °F93 %29.74 in1.6 miVariable1.2 mphMostly Cloudy
7:30 AM35.6 °F33.8 °F93 %29.74 in1.2 miVariable1.2 mphMostly Cloudy
8:00 AM35.6 °F35.6 °F100 %29.74 in1.2 miVariable2.3 mphMostly Cloudy
8:30 AM35.6 °F35.6 °F100 %29.77 in1.2 miVariable2.3 mphMostly Cloudy
9:00 AM35.6 °F35.6 °F100 %29.77 in1.6 miVariable2.3 mphMostly Cloudy
9:30 AM37.4 °F35.6 °F93 %29.77 in1.9 miVariable2.3 mphMostly Cloudy
10:00 AM37.4 °F37.4 °F100 %29.77 in1.9 miVariable2.3 mphMostly Cloudy
10:30 AM37.4 °F37.4 °F100 %29.77 in1.9 miVariable1.2 mphMostly Cloudy
11:00 AM37.4 °F37.4 °F100 %29.77 in2.8 miWNW (300°)3.5 mphMostly Cloudy
11:30 AM37.4 °F35.6 °F93 %29.77 in2.8 miWest (260°)3.5 mphMostly Cloudy
12:00 PM39.2 °F37.4 °F93 %29.77 in2.8 miNW (310°)3.5 mphMostly Cloudy
12:30 PM37.4 °F35.6 °F93 %29.77 in2.8 miWNW (300°)3.5 mphMostly Cloudy
1:00 PM37.4 °F35.6 °F93 %29.74 in2.8 miWNW (290°)4.6 mphMostly Cloudy
1:30 PM37.4 °F35.6 °F93 %29.74 in2.8 miWest (280°)6.9 mphMostly Cloudy
2:00 PM37.4 °F35.6 °F93 %29.74 in2.8 miWNW (300°)6.9 mphMostly Cloudy
2:30 PM37.4 °F35.6 °F93 %29.74 in3.7 miWNW (290°)6.9 mphMostly Cloudy
3:00 PM37.4 °F35.6 °F93 %29.74 in3.7 miWest (280°)9.2 mphMostly Cloudy
3:30 PM35.6 °F33.8 °F93 %29.77 in3.7 miWest (270°)11.5 mphRainLight Rain
4:00 PM33.8 °F32.0 °F93 %29.77 in3.7 miWest (280°)12.7 mphRainRain
5:00 PM33.8 °F32.0 °F93 %29.77 in2.5 miWest (280°)10.4 mphSnowLight Snow
5:30 PM32.0 °F32.0 °F100 %29.80 in1.6 miWest (280°)9.2 mphSnowLight Snow
6:00 PM32.0 °F32.0 °F100 %29.80 in1.1 miWest (280°)9.2 mphSnowSnow
6:30 PM32.0 °F32.0 °F100 %29.83 in1.1 miWNW (300°)5.8 mphSnowSnow
7:00 PM32.0 °F32.0 °F100 %29.83 in0.9 miWNW (300°)6.9 mphSnowSnow
7:30 PM32.0 °F32.0 °F100 %29.83 in0.9 miWNW (300°)5.8 mphSnowSnow
8:00 PM32.0 °F32.0 °F100 %29.86 in1.9 miWNW (300°)3.5 mphSnowLight Snow
8:30 PM32.0 °F32.0 °F100 %29.86 in1.9 miWNW (300°)3.5 mphSnowLight Snow
9:00 PM32.0 °F32.0 °F100 %29.89 in1.9 miVariable2.3 mphSnowLight Snow
9:30 PM32.0 °F32.0 °F100 %29.89 in1.9 miVariable2.3 mphSnowLight Snow
10:00 PM32.0 °F32.0 °F100 %29.89 in1.9 miVariable2.3 mphSnowLight Snow
11:00 PM32.0 °F32.0 °F100 %29.92 in1.9 miVariable1.2 mphSnowLight Snow
Hourly data recorded from LQSA, located miles away from Brda, Bosnia and Herzegovina







STORIES FROM OUR PARTNERS